Weather Service Report


072 
ASUS43 KOAX 240510
RWRNE 

WEATHER ROUNDUP FOR NEBRASKA
NATIONAL WEATHER SERVICE OMAHA NE
1200 AM CDT SUN MAY 24 2015

NOTES: SATELLITE DATA IS BEING USED TO AUGMENT CLOUD COVER ABOVE
       12000 FEET.
       "FAIR" INDICATES FEW OR NO CLOUDS BELOW 12,000 FEET WITH NO
       SIGNIFICANT WEATHER AND/OR OBSTRUCTIONS TO VISIBILITY.

  * THESE STATIONS DO NOT REPORT WEATHER SUCH AS RAIN...SNOW OR FOG.
   
NEZ001>004-019>022-054>056-240600-
NEBRASKA PANHANDLE
  
CITY           SKY/WX    TMP DP  RH WIND       PRES   REMARKS
SCOTTSBLUFF    CLOUDY    54  53  97 E12       29.92S                  
ALLIANCE       CLOUDY    53  52  96 E16       29.94F                  
CHADRON        CLOUDY    54  52  93 E12       29.97S                  
KIMBALL          N/A    N/A N/A N/A MISG        N/A                   
SIDNEY         CLOUDY    50  48  93 E8        29.95R                  
$$
 
NEZ057>060-069>072-079>082-240600-
SOUTHWEST NEBRASKA
  
CITY           SKY/WX    TMP DP  RH WIND       PRES   REMARKS
NORTH PLATTE   CLOUDY    56  54  93 E16       29.97S                  
IMPERIAL       CLOUDY    55  53  93 SE20      29.92R                  
LEXINGTON      CLOUDY    58  57  95 E10       29.98S FOG              
MCCOOK         CLOUDY    57  56  96 E14       29.92F                  
OGALLALA       CLOUDY    55  54  99 E14       29.94F                  
$$
 
NEZ005>010-023>029-035>040-094-240600-
NORTH CENTRAL NEBRASKA
  
CITY           SKY/WX    TMP DP  RH WIND       PRES   REMARKS
VALENTINE      CLOUDY    55  53  93 E9        30.02S                  
AINSWORTH      CLOUDY    55  55 100 E13       30.03S FOG              
BROKEN BOW     CLOUDY    57  55  93 E12       29.98S FOG              
O'NEILL        CLOUDY    57  56  99 E9        30.04F FOG              
ORD            CLOUDY    56  55  97 E9        29.98F FOG              
THEDFORD       CLOUDY    55  55  98 E12G17    30.01R FOG              
$$
 
NEZ041-046>049-061>064-073>077-083>087-240600-
SOUTH CENTRAL NEBRASKA
  
CITY           SKY/WX    TMP DP  RH WIND       PRES   REMARKS
GRAND ISLAND   CLOUDY    59  57  93 E10       29.99S                  
AURORA         CLOUDY    60  60 100 E10       29.99S                  
HASTINGS       CLOUDY    59  57  93 E10       29.98R                  
HEBRON         CLOUDY    60  57  91 E7        29.96F                  
HOLDREGE       CLOUDY    57  56  94 E10       29.97S FOG              
KEARNEY *      CLOUDY    57  55  94 E10       29.99R                  
YORK           CLOUDY    59  59 100 E13       29.99F                  
$$
 
NEZ011>018-030>034-042>045-240600-
NORTHEAST NEBRASKA
  
CITY           SKY/WX    TMP DP  RH WIND       PRES   REMARKS
NORFOLK        CLOUDY    59  57  93 E6        30.02F FOG              
ALBION         CLOUDY    58  56  92 E9        30.00F FOG              
BLAIR          CLOUDY    61  58  91 NE8       30.02R                  
COLUMBUS *     CLOUDY    59  54  82 E10       30.04F                  
FREMONT        RAIN      62  59  90 E7        30.03R                  
TEKAMAH        CLOUDY    62  59  90 E8        30.02S                  
WAYNE          LGT RAIN  58  57  97 NE5       30.04F                  
$$

NEZ050>053-065>068-078-088>093-240600-
SOUTHEAST NEBRASKA
  
CITY           SKY/WX    TMP DP  RH WIND       PRES   REMARKS
LINCOLN        CLOUDY    62  60  93 E3        30.01R                  
OMAHA EPPLEY   CLOUDY    63  61  93 VRB5      30.02R                  
BEATRICE       CLOUDY    61  59  93 E7        29.98F                  
FALLS CITY     CLOUDY    62  59  90 E21G28    29.94F                  
NEBRASKA CITY  CLOUDY    61  61  98 CALM      30.00R                  
PLATTSMOUTH    CLOUDY    62  58  88 E3        30.02R                  
$$

NEZ044-045-051>053-067-240600-
OMAHA AREA
  
CITY           SKY/WX    TMP DP  RH WIND       PRES   REMARKS
OMAHA EPPLEY   CLOUDY    63  61  93 VRB5      30.02R                  
BLAIR          CLOUDY    61  58  91 NE8       30.02R                  
FREMONT        RAIN      62  59  90 E7        30.03R                  
MILLARD        CLOUDY    63  60  90 SE6       30.02R                  
OFFUTT AFB     CLOUDY    63  59  88 E8        30.02R                  
PLATTSMOUTH    CLOUDY    62  58  88 E3        30.02R                  
WAHOO          DRIZZLE   62  59  93 E7        30.02R                  
$$

Return to Home page


Western Regional Climate Center, wrcc@dri.edu